Regional Weather Roundup
Issued by NWS

Home | Current Version | Previous Version | Graphics & Text | Print | Product List | Glossary On
Versions: 1 2 3 4 5 6 7 8 9 10 11 12 13 14 15 16 17 18 19 20 21 22 23 24 25 26 27 28 29 30 31 32 33 34 35 36 37 38 39 40 41 42 43 44 45 46 47 48 49 50
000
ASUS43 KIND 030209
RWRIN

WEATHER ROUNDUP FOR INDIANA
NATIONAL WEATHER SERVICE INDIANAPOLIS IN
1000 PM EDT THU JUL 02 2015

NOTE: "FAIR" INDICATES FEW OR NO CLOUDS BELOW 12,000 FEET WITH NO
SIGNIFICANT WEATHER AND/OR OBSTRUCTIONS TO VISIBILITY.

* - STATION DOES NOT REPORT WEATHER SUCH AS PRECIPITATION OR FOG.

+ - STATION NOT QUALITY CONTROLLED BY THE NATIONAL WEATHER SERVICE.
    USE DATA WITH CAUTION...ESPECIALLY DEWPOINT AND RELATIVE
    HUMIDITY OBSERVATIONS.

INZ001>003-010>013-019-020-030300-
NORTHWEST INDIANA

CITY           SKY/WX    TMP DP  RH WIND       PRES   REMARKS
GARY /AIRPORT/ MOCLDY    61  57  88 N9        29.98S
KNOX *+        MOCLDY    64  54  68 NE5       29.94S
LA PORTE +     MOCLDY    62  58  86 N9        29.97S
MICHIGAN CITY+ MOCLDY    59  54  82 NE5       29.98S
MONTICELLO +   MOCLDY    69  60  75 NE6       29.92R
RENSSELAER +   MOCLDY    63  63 100 N9        29.95R
VALPARAISO     MOCLDY    61  57  87 N7        29.96S

$$

LMZ046-743>745-030300-
SOUTHERN LAKE MICHIGAN

STATION/POSITION TIME  TEMP    WIND        PRES    WAVE
                       AIR SEA DIR/SP/G            HT
                 (UTC) (F)     (DEG/KT/KT) (MB)    (FT)
BURNS HARBOR     0200   63      50/ 13/ 16 1015.6S
MICHIGAN CITY    0200   60      30/ 15/ 16   N/A
5NW MICH CITY    0200   62 64   60/ 16/ 19   N/A     4

$$

INZ004-005-014>016-021>024-030300-
NORTH CENTRAL INDIANA

CITY           SKY/WX    TMP DP  RH WIND       PRES   REMARKS
GOSHEN         PTCLDY    64  57  78 NE6       29.96S
LOGANSPORT +   MOCLDY    68  54  60 NE3       29.94R
PERU/GRISSOM   MOCLDY    66  59  78 NE8       29.93R
ROCHESTER +    MOCLDY    68  57  68 NE5       29.95R
SOUTH BEND     PTCLDY    64  57  78 N7        29.97R
WARSAW +         N/A     63  55  77 NE5       29.96R

$$

INZ006>009-017-018-025>027-030300-
NORTHEAST INDIANA

CITY           SKY/WX    TMP DP  RH WIND       PRES   REMARKS
ANGOLA *+        N/A     64  54  68 NE5       29.97S
AUBURN +       CLEAR     61  55  82 CALM      29.97S
FORT WAYNE     MOCLDY    67  56  67 E10       29.96R
HUNTINGTON +   MOCLDY    66  57  72 E5        29.95R

$$

INZ028-029-035-036-043>045-051>053-030300-
WEST CENTRAL INDIANA

CITY           SKY/WX    TMP DP  RH WIND       PRES   REMARKS
CRAWFORDSVL +  PTCLDY    67  60  76 NE5       29.91R
GREENCASTLE +  CLOUDY    72  61  68 NE6       29.89S
LAFAYETTE      CLOUDY    70  61  73 NE8       29.91R
TERRE HAUTE    CLOUDY    74  66  76 N5        29.87R

$$

INZ030>032-037>040-046>048-054>057-064-065-030300-
CENTRAL INDIANA

CITY           SKY/WX    TMP DP  RH WIND       PRES   REMARKS
CP ATTERBURY + MOCLDY    72  64  78 NE5       29.89R
COLUMBUS       CLOUDY    70  64  83 CALM      29.89R
FRANKFORT +    MOCLDY    70  64  80 N5        29.94R
GREENWOOD *+   CLOUDY    73  63  68 NE3       29.90R
INDIANAPOLIS   CLOUDY    74  62  66 NE10      29.88R
-EAGLE CREEK   CLOUDY    73  63  70 NE6       29.89R
KOKOMO *+      MOCLDY    66  59  77 NE8       29.93R
MARION +       PTCLDY    67  58  70 E8        29.94R
MT COMFORT *+  PTCLDY    68  68 100 NE6       29.91R
SHELBYVILLE    MOCLDY    73  65  75 NE7       29.88R
ZIONSVILLE +   CLOUDY    71  62  73 NE6       29.92R

$$

INZ033-034-041-042-049-050-058-059-030300-
EAST CENTRAL INDIANA

CITY           SKY/WX    TMP DP  RH WIND       PRES   REMARKS
MUNCIE         PTCLDY    70  61  73 NE8       29.92R

$$

INZ060-061-067>069-081>083-085>088-030300-
SOUTHWEST INDIANA

CITY           SKY/WX    TMP DP  RH WIND       PRES   REMARKS
EVANSVILLE     CLOUDY    75  70  84 CALM      29.86R
HUNTINGBURG *+ MOCLDY    73  70  88 CALM      29.87R
WASHINGTON +   CLOUDY    72  68  87 CALM      29.85S

$$

INZ062-063-066-070>080-084-089>092-030300-
SOUTH CENTRAL AND SOUTHEAST INDIANA

CITY           SKY/WX    TMP DP  RH WIND       PRES   REMARKS
BLOOMINGTON    PTCLDY    73  67  81 E6        29.87R
MADISON *+     MOCLDY    72  68  88 CALM      29.90R
NORTH VERNON + CLOUDY    72  72 100 CALM      29.88S
SEYMOUR +      CLOUDY    72  70  94 E3        29.88R

$$



USA.gov is the U.S. government's official web portal to all federal, state and local government web resources and services.